| time (UTC) | temp F | wind direction | speed knots | gust knots | rain 1hr in | rain 24hr in | rain mn in | humidity % | barometer mb |
| 20260506024503 | 57 | 191 | 6.1 | 11.3 | 0.00 | 0.00 | 0.00 | 88 | 1012.1 |
| 20260506023816 | 57 | 192 | 7.0 | 13.9 | 0.00 | 0.00 | 0.00 | 88 | 1012.2 |
| 20260506022703 | 57 | 191 | 7.0 | 13.9 | 0.00 | 0.00 | 0.00 | 88 | 1012.0 |
| 20260506022016 | 58 | 194 | 6.1 | 13.9 | 0.00 | 0.00 | 0.00 | 87 | 1012.1 |
| 20260506021119 | 58 | 189 | 6.1 | 13.0 | 0.00 | 0.00 | 0.00 | 87 | 1012.0 |
| 20260506020003 | 57 | 196 | 6.1 | 13.0 | 0.00 | 0.00 | 0.00 | 87 | 1012.2 |
| 20260506015617 | 57 | 191 | 5.2 | 13.0 | 0.00 | 0.00 | 0.00 | 86 | 1012.3 |
| 20260506014504 | 58 | 192 | 6.1 | 12.2 | 0.00 | 0.00 | 0.00 | 86 | 1012.2 |
| 20260506013603 | 58 | 188 | 5.2 | 12.2 | 0.00 | 0.00 | 0.00 | 86 | 1012.2 |
| 20260506012703 | 58 | 192 | 5.2 | 9.6 | 0.00 | 0.00 | 0.00 | 85 | 1012.0 |
| 20260506011803 | 58 | 190 | 5.2 | 9.6 | 0.00 | 0.00 | 0.00 | 85 | 1011.9 |
| 20260506010903 | 58 | 189 | 5.2 | 9.6 | 0.00 | 0.00 | 0.00 | 85 | 1012.0 |
| 20260506010217 | 58 | 185 | 5.2 | 11.3 | 0.00 | 0.00 | 0.00 | 84 | 1011.9 |
| 20260506005403 | 58 | 191 | 6.1 | 12.2 | 0.00 | 0.00 | 0.00 | 84 | 1011.6 |
| 20260506004503 | 58 | 193 | 6.1 | 13.0 | 0.00 | 0.00 | 0.00 | 84 | 1012.0 |
| 20260506003603 | 58 | 188 | 6.1 | 13.9 | 0.00 | 0.00 | 0.00 | 84 | 1011.7 |
| 20260506002920 | 59 | 179 | 6.1 | 14.8 | 0.00 | 0.00 | 0.00 | 83 | 1011.6 |
| 20260506002018 | 60 | 185 | 7.0 | 15.6 | 0.00 | 0.00 | 0.00 | 82 | 1011.3 |
| 20260506000903 | 59 | 200 | 7.8 | 15.6 | 0.00 | 0.00 | 0.00 | 82 | 1011.2 |
| 20260506000003 | 59 | 189 | 7.8 | 15.6 | 0.00 | 0.00 | 0.00 | 82 | 1011.3 |
| 20260505235403 | 59 | 193 | 7.8 | 14.8 | 0.00 | 0.00 | 0.00 | 82 | 1010.9 |
| 20260505234721 | 60 | 194 | 7.8 | 14.8 | 0.00 | 0.00 | 0.00 | 81 | 1010.9 |
| 20260505233603 | 60 | 183 | 7.8 | 14.8 | 0.00 | 0.00 | 0.00 | 80 | 1010.5 |
| 20260505232703 | 60 | 190 | 7.8 | 14.8 | 0.00 | 0.00 | 0.00 | 80 | 1010.4 |
| 20260505231803 | 61 | 193 | 7.0 | 14.8 | 0.00 | 0.00 | 0.00 | 79 | 1010.1 |
| 20260505230903 | 60 | 188 | 7.0 | 14.8 | 0.00 | 0.00 | 0.00 | 80 | 1010.1 |
| 20260505230003 | 60 | 191 | 7.0 | 13.9 | 0.00 | 0.00 | 0.00 | 80 | 1010.0 |
| 20260505225403 | 60 | 193 | 7.8 | 13.9 | 0.00 | 0.00 | 0.00 | 80 | 1010.2 |
| 20260505224503 | 60 | 188 | 7.0 | 16.5 | 0.00 | 0.00 | 0.00 | 80 | 1009.9 |
| 20260505223603 | 61 | 178 | 7.0 | 13.0 | 0.00 | 0.00 | 0.00 | 79 | 1010.0 |
| 20260505222703 | 61 | 186 | 6.1 | 11.3 | 0.00 | 0.00 | 0.00 | 79 | 1009.6 |
| 20260505221803 | 61 | 181 | 6.1 | 11.3 | 0.00 | 0.00 | 0.00 | 79 | 1010.0 |
| 20260505220903 | 61 | 181 | 6.1 | 11.3 | 0.00 | 0.00 | 0.00 | 79 | 1009.8 |
| 20260505220004 | 61 | 186 | 6.1 | 14.8 | 0.00 | 0.00 | 0.00 | 79 | 1010.0 |
| 20260505215403 | 61 | 185 | 6.1 | 13.0 | 0.00 | 0.00 | 0.00 | 79 | 1009.7 |
| 20260505214503 | 62 | 187 | 6.1 | 13.0 | 0.00 | 0.00 | 0.00 | 78 | 1010.0 |
| 20260505213820 | 62 | 181 | 6.1 | 13.9 | 0.00 | 0.00 | 0.00 | 78 | 1009.9 |
| 20260505212703 | 62 | 184 | 6.1 | 13.0 | 0.00 | 0.00 | 0.00 | 78 | 1009.7 |
| 20260505211803 | 62 | 177 | 6.1 | 13.0 | 0.00 | 0.00 | 0.00 | 78 | 1009.4 |
| 20260505210903 | 62 | 185 | 6.1 | 13.9 | 0.00 | 0.00 | 0.00 | 78 | 1009.4 |
| 20260505210003 | 62 | 192 | 6.1 | 12.2 | 0.00 | 0.00 | 0.00 | 79 | 1009.6 |
| 20260505205621 | 61 | 192 | 6.1 | 12.2 | 0.00 | 0.00 | 0.00 | 79 | 1009.8 |
| 20260505204718 | 60 | 188 | 6.1 | 12.2 | 0.00 | 0.00 | 0.00 | 81 | 1009.6 |
| 20260505203603 | 60 | 183 | 6.1 | 12.2 | 0.00 | 0.00 | 0.00 | 80 | 1009.4 |
| 20260505202703 | 61 | 178 | 6.1 | 11.3 | 0.00 | 0.00 | 0.00 | 79 | 1009.6 |
| 20260505201803 | 62 | 181 | 5.2 | 9.6 | 0.00 | 0.00 | 0.00 | 79 | 1009.7 |
| 20260505200903 | 61 | 184 | 5.2 | 11.3 | 0.00 | 0.00 | 0.00 | 79 | 1009.6 |
| 20260505200003 | 62 | 178 | 5.2 | 12.2 | 0.00 | 0.00 | 0.00 | 78 | 1010.0 |
| 20260505195403 | 62 | 176 | 5.2 | 12.2 | 0.00 | 0.00 | 0.00 | 79 | 1009.7 |
| 20260505194503 | 62 | 187 | 5.2 | 12.2 | 0.00 | 0.00 | 0.00 | 78 | 1009.9 |
| 20260505193603 | 62 | 182 | 5.2 | 9.6 | 0.00 | 0.00 | 0.00 | 78 | 1010.2 |
| 20260505192918 | 62 | 184 | 4.3 | 9.6 | 0.00 | 0.00 | 0.00 | 78 | 1010.3 |
| 20260505192021 | 62 | 188 | 4.3 | 8.7 | 0.00 | 0.00 | 0.00 | 79 | 1010.7 |
| 20260505191118 | 62 | 190 | 5.2 | 9.6 | 0.00 | 0.00 | 0.00 | 78 | 1010.8 |
| 20260505190004 | 62 | 193 | 5.2 | 8.7 | 0.00 | 0.00 | 0.00 | 79 | 1010.7 |
| 20260505185617 | 62 | 193 | 5.2 | 8.7 | 0.00 | 0.00 | 0.00 | 79 | 1011.0 |
| 20260505184503 | 62 | 180 | 4.3 | 8.7 | 0.00 | 0.00 | 0.00 | 79 | 1011.1 |
| 20260505183603 | 62 | 175 | 4.3 | 8.7 | 0.00 | 0.00 | 0.00 | 80 | 1011.4 |
| 20260505182703 | 62 | 183 | 4.3 | 8.7 | 0.00 | 0.00 | 0.00 | 79 | 1011.3 |
| 20260505181803 | 62 | 178 | 4.3 | 8.7 | 0.00 | 0.00 | 0.00 | 79 | 1011.2 |
| 20260505180903 | 61 | 187 | 4.3 | 8.7 | 0.00 | 0.00 | 0.00 | 80 | 1011.5 |
| 20260505180221 | 62 | 189 | 3.5 | 8.7 | 0.00 | 0.00 | 0.00 | 80 | 1011.7 |
| 20260505175403 | 62 | 179 | 3.5 | 7.8 | 0.00 | 0.00 | 0.00 | 79 | 1011.8 |
| 20260505174503 | 61 | 187 | 3.5 | 7.8 | 0.00 | 0.00 | 0.00 | 81 | 1011.9 |
| 20260505173603 | 61 | 193 | 3.5 | 7.0 | 0.00 | 0.00 | 0.00 | 80 | 1012.0 |
| 20260505172703 | 62 | 187 | 2.6 | 5.2 | 0.00 | 0.00 | 0.00 | 80 | 1012.2 |
| 20260505171803 | 61 | 182 | 2.6 | 6.1 | 0.00 | 0.00 | 0.00 | 81 | 1012.3 |
| 20260505170903 | 61 | 183 | 2.6 | 5.2 | 0.00 | 0.00 | 0.00 | 81 | 1012.2 |
| 20260505170003 | 61 | 191 | 3.5 | 7.0 | 0.00 | 0.00 | 0.00 | 82 | 1012.2 |
| 20260505165403 | 60 | 186 | 2.6 | 7.0 | 0.00 | 0.00 | 0.00 | 82 | 1012.4 |
| 20260505164503 | 60 | 183 | 2.6 | 7.0 | 0.00 | 0.00 | 0.00 | 82 | 1012.4 |
| 20260505163603 | 60 | 191 | 3.5 | 6.1 | 0.00 | 0.00 | 0.00 | 81 | 1012.5 |
| 20260505162703 | 61 | 186 | 2.6 | 6.1 | 0.00 | 0.00 | 0.00 | 80 | 1012.5 |
| 20260505161803 | 61 | 197 | 3.5 | 6.1 | 0.00 | 0.00 | 0.00 | 80 | 1012.7 |
| 20260505160903 | 61 | 189 | 3.5 | 6.1 | 0.00 | 0.00 | 0.00 | 80 | 1012.9 |
| 20260505152703 | 61 | 187 | 2.6 | 5.2 | 0.00 | 0.00 | 0.00 | 80 | 1013.0 |
| 20260505151803 | 62 | 186 | 1.7 | 3.5 | 0.00 | 0.00 | 0.00 | 79 | 1013.1 |
| 20260505151120 | 61 | 190 | 2.6 | 3.5 | 0.00 | 0.00 | 0.00 | 81 | 1013.1 |
| 20260505124718 | 60 | 160 | 0.9 | 2.6 | 0.00 | 0.00 | 0.00 | 83 | 1013.0 |
| 20260505123603 | 60 | 151 | 0.9 | 1.7 | 0.00 | 0.00 | 0.00 | 81 | 1012.8 |
| 20260505122703 | 60 | 152 | 0.0 | 1.7 | 0.00 | 0.00 | 0.00 | 82 | 1012.8 |
| 20260505121803 | 59 | 0 | 0.0 | 0.0 | 0.00 | 0.00 | 0.00 | 86 | 1012.7 |
| 20260505120903 | 57 | 0 | 0.0 | 0.0 | 0.00 | 0.00 | 0.00 | 88 | 1012.8 |
| 20260505120220 | 56 | 166 | 0.0 | 1.7 | 0.00 | 0.00 | 0.00 | 90 | 1012.7 |
| 20260505115403 | 56 | 173 | 0.0 | 1.7 | 0.00 | 0.00 | 0.00 | 89 | 1012.8 |
| 20260505114503 | 56 | 149 | 0.0 | 0.9 | 0.00 | 0.00 | 0.00 | 89 | 1013.1 |
| 20260505113603 | 56 | 160 | 0.0 | 0.9 | 0.00 | 0.00 | 0.00 | 90 | 1012.9 |
| 20260505112918 | 56 | 148 | 0.0 | 0.9 | 0.00 | 0.00 | 0.00 | 91 | 1012.9 |
| 20260505111803 | 56 | 133 | 0.0 | 1.7 | 0.00 | 0.00 | 0.00 | 90 | 1012.7 |
| 20260505111118 | 56 | 149 | 0.0 | 1.7 | 0.00 | 0.00 | 0.00 | 91 | 1012.8 |
| 20260505101803 | 53 | 179 | 0.9 | 1.7 | 0.00 | 0.00 | 0.00 | 96 | 1012.0 |
| 20260505101118 | 53 | 182 | 1.7 | 2.6 | 0.00 | 0.00 | 0.00 | 96 | 1012.0 |
| 20260505100003 | 53 | 184 | 1.7 | 2.6 | 0.00 | 0.00 | 0.00 | 96 | 1012.0 |
| 20260505095404 | 53 | 181 | 1.7 | 3.5 | 0.00 | 0.00 | 0.00 | 96 | 1011.8 |
| 20260505094720 | 53 | 175 | 0.9 | 2.6 | 0.00 | 0.00 | 0.00 | 96 | 1011.7 |
| 20260505093603 | 53 | 172 | 0.9 | 2.6 | 0.00 | 0.00 | 0.00 | 96 | 1011.8 |
| 20260505092703 | 53 | 178 | 1.7 | 2.6 | 0.00 | 0.00 | 0.00 | 96 | 1011.9 |
| 20260505092017 | 53 | 178 | 1.7 | 2.6 | 0.00 | 0.00 | 0.00 | 96 | 1011.7 |
| 20260505090903 | 53 | 172 | 0.9 | 1.7 | 0.00 | 0.00 | 0.00 | 96 | 1011.9 |
| 20260505090217 | 52 | 170 | 0.9 | 1.7 | 0.00 | 0.00 | 0.00 | 96 | 1011.8 |
| 20260505085403 | 53 | 176 | 0.9 | 1.7 | 0.00 | 0.00 | 0.00 | 96 | 1011.9 |
| 20260505084503 | 53 | 179 | 1.7 | 2.6 | 0.00 | 0.00 | 0.00 | 96 | 1011.8 |
| 20260505083603 | 53 | 173 | 0.9 | 1.7 | 0.00 | 0.00 | 0.00 | 95 | 1011.5 |
| 20260505082703 | 53 | 171 | 0.9 | 1.7 | 0.00 | 0.00 | 0.00 | 95 | 1011.8 |
| 20260505082017 | 53 | 177 | 0.9 | 3.5 | 0.00 | 0.00 | 0.00 | 95 | 1011.8 |
| 20260505081120 | 53 | 173 | 0.9 | 2.6 | 0.00 | 0.00 | 0.00 | 95 | 1012.0 |
| 20260505080003 | 53 | 179 | 1.7 | 2.6 | 0.00 | 0.00 | 0.00 | 95 | 1011.7 |
| 20260505075403 | 53 | 186 | 1.7 | 2.6 | 0.00 | 0.00 | 0.00 | 95 | 1011.9 |
| 20260505074503 | 53 | 184 | 1.7 | 3.5 | 0.00 | 0.00 | 0.00 | 94 | 1011.8 |
| 20260505073603 | 53 | 189 | 1.7 | 3.5 | 0.00 | 0.00 | 0.00 | 94 | 1011.8 |
| 20260505072703 | 53 | 191 | 1.7 | 3.5 | 0.00 | 0.00 | 0.00 | 94 | 1011.8 |
| 20260505071803 | 53 | 188 | 1.7 | 3.5 | 0.00 | 0.00 | 0.00 | 94 | 1011.8 |
| 20260505070903 | 53 | 193 | 1.7 | 3.5 | 0.00 | 0.00 | 0.00 | 94 | 1011.9 |
| 20260505070003 | 54 | 191 | 1.7 | 5.2 | 0.00 | 0.00 | 0.00 | 94 | 1011.8 |
| 20260505065403 | 54 | 190 | 1.7 | 5.2 | 0.00 | 0.00 | 0.00 | 94 | 1011.7 |
| 20260505064503 | 54 | 190 | 1.7 | 3.5 | 0.00 | 0.00 | 0.00 | 93 | 1011.9 |
| 20260505063603 | 53 | 181 | 1.7 | 3.5 | 0.00 | 0.00 | 0.00 | 93 | 1012.0 |
| 20260505062703 | 54 | 184 | 1.7 | 3.5 | 0.00 | 0.00 | 0.00 | 93 | 1012.1 |
| 20260505061803 | 54 | 185 | 2.6 | 5.2 | 0.00 | 0.00 | 0.00 | 93 | 1012.0 |
| 20260505060903 | 54 | 182 | 2.6 | 5.2 | 0.00 | 0.00 | 0.00 | 93 | 1012.0 |
| 20260505060003 | 54 | 178 | 1.7 | 3.5 | 0.00 | 0.00 | 0.00 | 93 | 1012.0 |
| 20260505055403 | 54 | 185 | 1.7 | 3.5 | 0.00 | 0.00 | 0.00 | 93 | 1012.2 |
| 20260505054503 | 54 | 186 | 2.6 | 5.2 | 0.00 | 0.00 | 0.00 | 93 | 1012.2 |
| 20260505053603 | 54 | 183 | 2.6 | 5.2 | 0.00 | 0.00 | 0.00 | 93 | 1012.2 |
| 20260505052703 | 54 | 189 | 2.6 | 5.2 | 0.00 | 0.00 | 0.00 | 93 | 1012.3 |
| 20260505051803 | 54 | 186 | 2.6 | 6.1 | 0.00 | 0.00 | 0.00 | 92 | 1012.4 |
| 20260505050903 | 54 | 183 | 2.6 | 6.1 | 0.00 | 0.00 | 0.00 | 92 | 1012.4 |
| 20260505040903 | 55 | 187 | 2.6 | 5.2 | 0.00 | 0.00 | 0.00 | 89 | 1012.6 |
| 20260505040004 | 55 | 188 | 2.6 | 6.1 | 0.00 | 0.00 | 0.00 | 89 | 1012.7 |
| 20260505035403 | 55 | 187 | 2.6 | 6.1 | 0.00 | 0.00 | 0.00 | 89 | 1012.6 |
| 20260505034503 | 55 | 183 | 2.6 | 6.1 | 0.00 | 0.00 | 0.00 | 89 | 1012.5 |
| 20260505033603 | 55 | 184 | 2.6 | 6.1 | 0.00 | 0.00 | 0.00 | 89 | 1012.6 |
| 20260505032703 | 55 | 186 | 2.6 | 5.2 | 0.00 | 0.00 | 0.00 | 89 | 1012.6 |
| 20260505031803 | 55 | 187 | 2.6 | 5.2 | 0.00 | 0.00 | 0.00 | 89 | 1012.5 |
| 20260505030903 | 55 | 191 | 2.6 | 5.2 | 0.00 | 0.00 | 0.00 | 89 | 1012.7 |
| 20260505030221 | 56 | 191 | 3.5 | 6.1 | 0.00 | 0.00 | 0.00 | 88 | 1012.7 |
| 20260505025617 | 56 | 190 | 3.5 | 6.1 | 0.00 | 0.00 | 0.00 | 88 | 1012.6 |